MPEC 2014-F85 : 2014 FO47
The following Minor Planet Electronic Circular may be linked-to from your own Web pages, but must not otherwise be redistributed electronically.A form allowing access to any MPEC is at the bottom of this page.


M.P.E.C. 2014-F85 Issued 2014 Mar. 31, 21:18 UT The Minor Planet Electronic Circulars contain information on unusual minor planets and routine data on comets. They are published on behalf of Commission 20 of the International Astronomical Union by the Minor Planet Center, Smithsonian Astrophysical Observatory, Cambridge, MA 02138, U.S.A. Prepared using the Tamkin Foundation Computer Network MPC@CFA.HARVARD.EDU URL https://www.minorplanetcenter.net/ ISSN 1523-6714 2014 FO47 Observations: K14F47O* C2014 03 30.12411 05 02 41.22 +21 10 24.4 20.2 VqEF085G96 K14F47O C2014 03 30.13462 05 02 43.20 +21 09 23.9 19.9 VqEF085G96 K14F47O C2014 03 30.14515 05 02 45.16 +21 08 23.3 19.7 VqEF085G96 K14F47O C2014 03 30.19694 05 02 54.95 +21 03 26.7 19.6 RoEF085926 K14F47O C2014 03 30.19940 05 02 55.43 +21 03 12.4 19.7 RoEF085926 K14F47O C2014 03 30.20187 05 02 55.90 +21 02 58.3 19.7 RoEF085926 K14F47O C2014 03 30.81610 05 04 56.06 +20 05 21.3 qEF085246 K14F47O C2014 03 30.81713 05 04 56.38 +20 05 13.6 qEF085246 K14F47O KC2014 03 30.82303 05 04 57.22 +20 04 46.6 19.5 RqEF085104 K14F47O KC2014 03 30.83040 05 04 58.59 +20 04 05.3 19.7 RqEF085104 K14F47O KC2014 03 30.83631 05 04 59.63 +20 03 31.0 19.8 RqEF085104 K14F47O KC2014 03 31.07379 05 05 44.44 +19 41 40.3 qEF085H21 K14F47O KC2014 03 31.08093 05 05 45.76 +19 41 00.1 qEF085H21 K14F47O KC2014 03 31.08804 05 05 46.97 +19 40 20.4 19.9 VqEF085H21 Observer details: 104 San Marcello Pistoiese. Observer P. Bacci. Measurers P. Bacci, L. Tesi, G. Fagioli. 0.60-m f/4 reflector + CCD. 246 Klet Observatory-KLENOT. Observers J. Ticha, M. Tichy, M. Kocer, M. Honkova. Measurer M. Tichy. 1.06-m KLENOT Telescope + CCD. 926 Tenagra II Observatory. Observers M. Schwartz, P. R. Holvorcem. 0.81-m f/7 Ritchey-Chretien + CCD. G96 Mt. Lemmon Survey. Observer J. A. Johnson. Measurers E. J. Christensen, A. R. Gibbs, A. D. Grauer, R. E. Hill, J. A. Johnson, R. A. Kowalski, S. M. Larson, F. C. Shelly. 1.5-m reflector + CCD. H21 Astronomical Research Observatory, Westfield. Observer R. Holmes. Measurers L. Buzzi, S. Foglia, T. Vorobjov, T. Linder, H. Devore. 0.61-m f/4.0 astrograph + CCD. Orbital elements: 2014 FO47 PHA, Earth MOID = 0.0448 AU Epoch 2014 May 23.0 TT = JDT 2456800.5 MPC M 282.93176 (2000.0) P Q n 1.50359535 Peri. 347.67184 +0.97353492 +0.22848122 a 0.7545976 Node 359.07292 -0.17354646 +0.72455375 e 0.2685253 Incl. 18.40040 -0.14869896 +0.65024472 P 0.66 H 20.2 G 0.15 U 9 Residuals in seconds of arc 140330 G96 0.3- 0.2- 140330 926 0.2+ 0.2+ 140330 104 0.1- 0.2- 140330 G96 0.1+ 0.3- 140330 246 0.3- 0.3+ 140331 H21 0.6- 0.0 140330 G96 0.0 0.4- 140330 246 1.6+ 1.6- 140331 H21 0.4+ 0.3- 140330 926 0.1+ 0.2+ 140330 104 0.0 0.6+ 140331 H21 0.2- 0.2- 140330 926 0.2+ 0.1+ 140330 104 0.4+ 0.8+ Ephemeris: 2014 FO47 a,e,i = 0.75, 0.27, 18 Q = 0.9572 Date TT R. A. (2000) Decl. Delta r Elong. Phase V 2014 03 01 00 21 08.8 +60 03 54 0.1659 0.9481 70.4 100.1 19.8 ... 2014 03 16 03 41 42.9 +45 46 23 0.1455 0.9572 71.0 100.7 19.6 ... 2014 03 24 04 37 14.6 +31 30 31 0.1522 0.9541 69.4 102.0 19.7 ... 2014 03 30 05 02 18.5 +21 22 29 0.1643 0.9482 67.6 103.2 20.0 2014 03 31 05 05 32.8 +19 48 56 0.1668 0.9469 67.2 103.4 20.0 2014 04 01 05 08 33.7 +18 17 54 0.1694 0.9455 66.8 103.7 20.0 ... 2014 04 07 05 22 39.1 +10 06 01 0.1867 0.9354 64.4 105.2 20.3 ... 2014 04 15 05 33 05.2 +01 26 17 0.2131 0.9172 60.5 107.8 20.7 ... 2014 04 30 05 34 07.9 -09 12 46 0.2658 0.8689 51.9 114.1 21.4 A. U. Tomatic (C) Copyright 2014 MPC M.P.E.C. 2014-F85


Enter an MPEC number in one of the following forms:
- 1997-B01 (the full form)
- J97B01 (the packed version of the full form)
- B01 (the abbreviated form)